Webcams

EDPO Webcam Blick Richtung Osten (local time)

Webcam-2

Info zum Bild:

  • Blick zum Kloster Mariahilf, Entfernung ca. 3km
  • Blick zur Kirche St. Johannes, Entfernung ca. 1km
  • Blick zu den beiden Windrädern, Entfernung ca. 6km

EDPO Webcam Blick Richtung Westen (local time)

Webcam-1

Info zum Bild:

  • Blick zum Tyrolsberg, Entfernung ca. 3,5km

Dillberg Webcam Blick Richtung Osten zu EDPO (local time)

Webcam-1

Info zum Bild:

  • Blick vom Dillberg Richtung Neumarkt, Höhe 555ft über EDPO

Dillberg Webcam Blick Richtung Westen zum Sender (local time)

Webcam-1

Info zum Bild:

  • Blick vom Dillberg Sender, Höhe bis Spitze 1322ft über EDPO
  • 600m Entfernung / Sichtweite von CAM zum Dillberg Sender

Wolfstein Webcam Blick Richtung Osten nach Neumarkt


Snapshot

Info zum Bild:

Nürnberger Fernsehturm (Rundum CAM)


METAR Informationen der nächstgelegenen Flughäfen


EDDN / Flughafen Nürnberg „Albrecht Dürer“

EDDN 152150Z VRB01KT CAVOK 15/11 Q1020

ETIC / Fliegerhorst Grafenwöhr AAF

ETIC 152156Z AUTO 00000KT 9999 CLR 13/12 A3014 RMK AO2 SLP200 T01300116 TSNO $

ETIH / Fliegerhorst Hohenfels AAF

ETIH 152156Z AUTO 00000KT 9999 CLR 14/12 A3016 RMK AO2 SLP204 T01410121 $